Find Astra 2F

NORAD ID: 38778 Int'l Des: 2012-051 Owner: SESSA Country: L operational
HEOCIRCULARGSOGEO

Current View

Loading 3D Globe...

About Astra 2F

Description loading...

Upcoming Passes

Passes for default location (London). Set your location on the main map for personalized predictions.

Altitude History

Loading altitude history...

Two-Line Element Set

1 38778U 12051A 26151.50686479 .00000162 00000-0 00000+0 0 9990
2 38778 0.0616 259.9367 0000497 257.6060 302.1257 1.00270140 40970
Epoch: May 31, 2026 • Age: 10 hours

Current Status

Altitude 35786.6 km
Velocity 3.07 km/s
Sub-Earth Point -0.03°S, 28.19°E
Launch Date Sep 28, 2012
Age 13.6 years
Type other

Technical Details

Classification Payload
Mass 5968.00 kg
Dry Mass 2660.00 kg
Total Mass 5968.00 kg
Length 5.00 m
Diameter 2.50 m
Span 39.00 m
Shape Box + 2 pan
Manufacturer EADSB
Bus Type Eurostar 3000
Phase Status In Orbit
Owner/State SESSA/L

Most Searched